Weather past 2 weeks in Mamoutzou, Mayotte

Now
82 °F

Scattered showers. Broken clouds.


Feels Like: 88 °F
Forecast: 78 / 82 °F
Wind: 15 mph from Southwest

Location: Dzaoudzi / Pamanzi Mayotte

Current Time: Jan 26, 2015 at 3:45:35 PM

Latest Report: Jan 26, 2015 at 3:00 PM


Visibility: N/A

Pressure: 29.86 "Hg

Humidity: 74%

Dew point: 73 °F

Location of MamoutzouLocation

Historic Weather in Mamoutzou — Graph

°F

Mamoutzou temperature yesterday

Maximum temperature yesterday: 88 °F (at 11:00 AM)
Minimum temperature yesterday: 77 °F (at 1:30 AM)
Average temperature yesterday: 83 °F

Past Weeks' High & Low Weather Summary

 TemperatureHumidityPressure
High88 °F (Jan 12, 9:30 AM)94% (Jan 19, 1:00 AM)29.98 "Hg (Jan 19, 1:00 AM)
Low75 °F (Jan 19, 11:04 AM)59% (Jan 25, 1:00 PM)29.65 "Hg (Jan 16, 4:30 PM)
Average82 °F78%29.83 "Hg
* Reported Jan 11 2:00 PM — Jan 26 2:30 PM, Mamoutzou, Weather by CustomWeather, © 2014

Note: Actual official high and low records may vary slightly from our data, if they occured in-between our weather recording intervals... More about our weather records

Advertising

Mamoutzou weather history for previous 24 hours

 ConditionsComfort  
Time TempWeatherWind HumidityBarometerVisibility
2:30 PM
Jan 26
79 °FBroken clouds.5 mph89%29.86 "HgN/A
2:00 PM77 °FSprinkles. Partly sunny.21 mph89%29.89 "Hg1 mi
1:30 PM86 °FRain showers. Scattered clouds.20 mph70%29.86 "HgN/A
1:00 PM86 °FScattered clouds.15 mph70%29.86 "HgN/A
12:34 PM86 °FScattered showers. Scattered clouds.14 mph66%29.89 "HgN/A
12:00 PM86 °FScattered showers. Scattered clouds.16 mph70%29.89 "HgN/A
11:00 AM82 °FPartly sunny.14 mph79%29.89 "HgN/A
10:30 AM81 °FScattered showers. Broken clouds.23 mph79%29.92 "HgN/A
10:00 AM86 °FBroken clouds.14 mph75%29.92 "HgN/A
9:30 AM86 °FPartly sunny.13 mph70%29.92 "HgN/A
9:00 AM86 °FPartly sunny.13 mph70%29.92 "HgN/A
8:30 AM82 °FBroken clouds.12 mph74%29.92 "HgN/A
8:00 AM82 °FPartly sunny.14 mph79%29.92 "HgN/A
7:34 AM82 °FPartly sunny.9 mph79%29.92 "HgN/A
7:00 AM81 °FScattered clouds.12 mph79%29.92 "HgN/A
6:30 AM81 °FScattered clouds.10 mph84%29.89 "HgN/A
6:00 AM81 °FScattered clouds.10 mph79%29.89 "HgN/A
5:42 AM81 °FPassing clouds.12 mph84%29.89 "HgN/A
5:00 AM81 °FPassing clouds.10 mph84%29.86 "HgN/A
4:30 AM81 °FWarm.8 mph79%29.86 "HgN/A
4:00 AM81 °FPartly cloudy.12 mph79%29.86 "HgN/A
3:30 AM81 °FPassing clouds.10 mph79%29.86 "HgN/A
3:00 AM81 °FWarm.8 mph84%29.86 "HgN/A
2:30 AM81 °FPassing clouds.9 mph79%29.86 "HgN/A
2:00 AM81 °FWarm.9 mph79%29.86 "HgN/A
1:30 AM81 °FWarm.10 mph79%29.86 "HgN/A
1:00 AM81 °FWarm.9 mph79%29.86 "HgN/A
12:30 AM81 °FWarm.10 mph84%29.89 "HgN/A
12:00 AM81 °FWarm.9 mph84%29.89 "HgN/A
11:30 PM
Jan 25
81 °FPassing clouds.8 mph84%29.89 "HgN/A
11:00 PM81 °FPassing clouds.8 mph84%29.89 "HgN/A
10:30 PM82 °FWarm.7 mph79%29.92 "HgN/A
10:00 PM82 °FWarm.6 mph79%29.89 "HgN/A
9:30 PM82 °FWarm.8 mph74%29.89 "HgN/A
9:00 PM82 °FWarm.7 mph79%29.89 "HgN/A
8:30 PM82 °FWarm.7 mph74%29.89 "HgN/A
8:00 PM82 °FWarm.8 mph74%29.89 "HgN/A
7:30 PM82 °FWarm.10 mph74%29.89 "HgN/A
7:00 PM82 °FWarm.10 mph79%29.89 "HgN/A
6:30 PM82 °FWarm.14 mph74%29.89 "HgN/A
6:00 PM84 °FScattered clouds.13 mph70%29.86 "HgN/A
5:30 PM86 °FPassing clouds.12 mph66%29.86 "HgN/A
5:00 PM88 °FPassing clouds.13 mph62%29.86 "HgN/A
4:30 PM88 °FScattered clouds.10 mph62%29.86 "HgN/A
4:00 PM88 °FScattered clouds.12 mph62%29.86 "HgN/A
3:30 PM88 °FScattered clouds.13 mph62%29.86 "HgN/A
3:00 PM88 °FPartly sunny.14 mph59%29.86 "HgN/A
Weather by CustomWeather, © 2014

See weather overviewHow to use our weather pages